Findlay, OH

3:40 AM EST on February 09, 2016 (GMT -0500)
Findlay

Weather History for KFDY - February, 2013

Change the Weather History Date:

Saturday, February 23, 2013

  Actual Average Record
Temperature  
Mean Temperature 31 °F -  
Max Temperature 34 °F 40 °F 61 °F (1977)
Min Temperature 28 °F 26 °F -6 °F (2015)
Degree Days  
Heating Degree Days 34    
Moisture  
Dew Point 25 °F    
Average Humidity 77    
Maximum Humidity 93    
Minimum Humidity 64    
Precipitation  
Precipitation 0.00 in - - ()
Sea Level Pressure  
Sea Level Pressure 29.93 in    
Wind  
Wind Speed 11 mph (West)    
Max Wind Speed 16 mph    
Max Gust Speed -    
Visibility 9 miles    
Events      
Averages and records for this station are not official NWS values.
T = Trace of Precipitation, MM = Missing Value Source: NWS Daily Summary

Daily Weather History Graph

Daily Weather History Graph

Search for Another Location

Airport or City:

Trip Planner

Search our weather history database for the weather conditions in past years. The results will help you decide how hot, cold, wet, or windy it might be!

Date:

Astronomy

Feb. 23, 2013 Rise Set
Actual Time 7:17 AM EST 6:19 PM EST
Civil Twilight 6:49 AM EST 6:46 PM EST
Nautical Twilight 6:17 AM EST 7:18 PM EST
Astronomical Twilight 5:46 AM EST 7:50 PM EST
Moon 4:27 PM EST (2/23) 5:40 AM EST (2/23)
Length of Visible Light 11h 57m
Length of Day
11h 01m
Waxing Gibbous, 95% of the Moon is Illuminated
Feb 23
Waxing Gibbous
Feb 25
Full
Mar 4
Last Quarter
Mar 11
New
Mar 19
First Quarter

Hourly Weather History & Observations

Time (EST) Temp. Windchill Dew Point Humidity Pressure Visibility Wind Dir Wind Speed Gust Speed Precip Events Conditions
12:53 AM 34.0 °F 27.2 °F 28.9 °F 82% 29.93 in 10.0 mi SSW 8.1 mph - N/A   Overcast
1:31 AM 33.8 °F 27.0 °F 28.4 °F 81% 29.92 in 10.0 mi SW 8.1 mph - N/A   Overcast
1:53 AM 34.0 °F 28.8 °F 28.9 °F 82% 29.93 in 10.0 mi SW 5.8 mph - N/A   Overcast
2:10 AM 33.8 °F 25.8 °F 30.2 °F 87% 29.92 in 8.0 mi WSW 10.4 mph - N/A   Overcast
2:20 AM 33.8 °F 24.3 °F 30.2 °F 87% 29.92 in 6.0 mi West 13.8 mph - N/A   Overcast
2:53 AM 32.0 °F 22.1 °F 28.9 °F 88% 29.93 in 7.0 mi West 13.8 mph - N/A   Overcast
3:36 AM 30.2 °F 20.2 °F 28.4 °F 93% 29.91 in 7.0 mi West 12.7 mph - N/A   Overcast
3:53 AM 30.9 °F 21.7 °F 28.9 °F 92% 29.92 in 7.0 mi West 11.5 mph - N/A   Overcast
4:15 AM 30.2 °F 20.8 °F 28.4 °F 93% 29.90 in 9.0 mi WSW 11.5 mph - N/A   Overcast
4:53 AM 30.9 °F 23.5 °F 28.0 °F 89% 29.93 in 9.0 mi WSW 8.1 mph - N/A   Overcast
5:19 AM 30.2 °F 18.9 °F 26.6 °F 86% 29.92 in 8.0 mi West 16.1 mph - N/A   Overcast
5:53 AM 30.0 °F 19.1 °F 24.1 °F 79% 29.94 in 10.0 mi West 15.0 mph - N/A   Overcast
6:53 AM 30.0 °F 20.0 °F 24.1 °F 79% 29.94 in 10.0 mi West 12.7 mph - N/A   Overcast
7:53 AM 28.9 °F 18.2 °F 21.0 °F 72% 29.96 in 10.0 mi West 13.8 mph - N/A   Overcast
8:53 AM 30.0 °F 20.0 °F 21.9 °F 72% 29.97 in 10.0 mi West 12.7 mph - N/A   Overcast
9:53 AM 30.0 °F 20.0 °F 21.9 °F 72% 29.96 in 10.0 mi West 12.7 mph - N/A   Overcast
10:53 AM 30.0 °F 18.7 °F 19.9 °F 66% 29.95 in 10.0 mi WSW 16.1 mph - N/A   Overcast
11:53 AM 30.0 °F 20.5 °F 21.9 °F 72% 29.95 in 10.0 mi West 11.5 mph - N/A   Overcast
12:53 PM 30.9 °F 20.2 °F 21.9 °F 69% 29.94 in 10.0 mi West 15.0 mph - N/A   Overcast
1:53 PM 33.1 °F 23.4 °F 23.0 °F 66% 29.93 in 10.0 mi WSW 13.8 mph - N/A   Overcast
2:53 PM 32.0 °F 22.5 °F 21.9 °F 66% 29.91 in 10.0 mi West 12.7 mph - N/A   Overcast
3:53 PM 33.1 °F 23.9 °F 21.9 °F 64% 29.91 in 10.0 mi WSW 12.7 mph - N/A   Overcast
4:53 PM 32.0 °F 21.6 °F 21.9 °F 66% 29.92 in 10.0 mi West 15.0 mph - N/A   Overcast
5:53 PM 30.9 °F 22.8 °F 23.0 °F 72% 29.93 in 10.0 mi WNW 9.2 mph - N/A   Overcast
6:53 PM 30.9 °F 21.7 °F 23.0 °F 72% 29.92 in 10.0 mi West 11.5 mph - N/A   Overcast
7:53 PM 30.0 °F 21.7 °F 21.9 °F 72% 29.94 in 10.0 mi West 9.2 mph - N/A   Overcast
8:53 PM 30.0 °F 20.0 °F 21.9 °F 72% 29.94 in 10.0 mi West 12.7 mph - N/A   Overcast
9:53 PM 28.9 °F 18.6 °F 21.0 °F 72% 29.94 in 10.0 mi West 12.7 mph - N/A   Overcast
11:53 PM 28.0 °F 19.3 °F 19.9 °F 72% 29.93 in 10.0 mi WNW 9.2 mph - N/A   Overcast